TimeCST,TemperatureF,Dew PointF,Humidity,Sea Level PressureIn,VisibilityMPH,Wind Direction,Wind SpeedMPH,Gust SpeedMPH,PrecipitationIn,Events,Conditions,WindDirDegrees,DateUTC
12:53 AM,30.9,27.0,85,30.36,10.0,Calm,Calm,-,N/A,,Partly Cloudy,0,2013-01-05 06:53:00
1:53 AM,32.0,28.0,85,30.35,10.0,Calm,Calm,-,N/A,,Overcast,0,2013-01-05 07:53:00
2:53 AM,32.0,28.0,85,30.35,10.0,Calm,Calm,-,N/A,,Overcast,0,2013-01-05 08:53:00
3:53 AM,33.1,28.9,85,30.35,9.0,Calm,Calm,-,0.00,Snow,Light Snow,0,2013-01-05 09:53:00
4:53 AM,34.0,30.0,85,30.36,10.0,Calm,Calm,-,0.00,,Overcast,0,2013-01-05 10:53:00
5:53 AM,34.0,30.0,85,30.36,10.0,Calm,Calm,-,N/A,,Overcast,0,2013-01-05 11:53:00
6:53 AM,34.0,30.0,85,30.36,10.0,Calm,Calm,-,0.00,,Overcast,0,2013-01-05 12:53:00
7:53 AM,34.0,30.9,89,30.37,10.0,Calm,Calm,-,0.00,,Overcast,0,2013-01-05 13:53:00
8:53 AM,36.0,32.0,86,30.37,10.0,Calm,Calm,-,N/A,,Overcast,0,2013-01-05 14:53:00
9:53 AM,42.1,30.0,62,30.34,10.0,Calm,Calm,-,N/A,,Overcast,0,2013-01-05 15:53:00
10:53 AM,43.0,30.0,60,30.35,10.0,Calm,Calm,-,N/A,,Overcast,0,2013-01-05 16:53:00
11:53 AM,45.0,32.0,60,30.30,10.0,Variable,6.9,-,N/A,,Overcast,0,2013-01-05 17:53:00
12:53 PM,46.9,33.1,59,30.26,10.0,Variable,6.9,-,N/A,,Overcast,0,2013-01-05 18:53:00
1:53 PM,46.9,33.1,59,30.24,10.0,Variable,4.6,-,N/A,,Mostly Cloudy,0,2013-01-05 19:53:00
2:53 PM,46.0,34.0,63,30.24,10.0,Variable,4.6,-,N/A,,Overcast,0,2013-01-05 20:53:00
3:53 PM,46.0,34.0,63,30.25,10.0,Variable,4.6,-,N/A,,Overcast,0,2013-01-05 21:53:00
4:53 PM,45.0,34.0,65,30.25,10.0,Variable,3.5,-,N/A,,Mostly Cloudy,0,2013-01-05 22:53:00
5:53 PM,42.1,34.0,73,30.25,10.0,Calm,Calm,-,N/A,,Clear,0,2013-01-05 23:53:00
6:53 PM,39.9,34.0,79,30.26,10.0,Calm,Calm,-,N/A,,Clear,0,2013-01-06 00:53:00
7:53 PM,34.0,32.0,92,30.27,10.0,Calm,Calm,-,N/A,,Scattered Clouds,0,2013-01-06 01:53:00
8:53 PM,36.0,33.1,89,30.27,10.0,Calm,Calm,-,N/A,,Mostly Cloudy,0,2013-01-06 02:53:00
9:53 PM,32.0,30.9,96,30.27,8.0,Calm,Calm,-,N/A,,Clear,0,2013-01-06 03:53:00
10:53 PM,30.9,30.0,96,30.29,4.0,Calm,Calm,-,N/A,,Clear,0,2013-01-06 04:53:00
11:53 PM,30.0,30.0,100,30.27,3.0,Calm,Calm,-,N/A,,Clear,0,2013-01-06 05:53:00